Location: St. Louis
(38.6270°N, 90.1994°W)
Time: 18:11:40
(UTC-06:00)

Courier 1B - Pass Details

Date: 07 December 2021
Orbit: 962 x 1209 km, 28.3° (Epoch: 26 January)

Event Time Altitude Azimuth Distance (km) Brightness Sun altitude
Rises 19:36:24 0° 263° (W) 3,978 11.8 -33.8°
Reaches altitude 10° 19:39:56 10° 249° (WSW) 2,972 10.8 -34.5°
Maximum altitude 19:45:14 22° 202° (SSW) 2,153 9.4 -35.5°
Enters shadow 19:46:13 21° 190° (S) 2,173 9.3 -35.7°
